Location: Borowce
(50.8255°N, 19.6209°E)
Time: 21:58:48
(UTC+00:00)

Cosmos 923 Rocket - Pass Details

Date: 19 May 2025
Orbit: 755 x 781 km, 74.0° (Epoch: 16 June)

Event Time Altitude Azimuth Distance (km) Brightness Sun altitude
Exits shadow 22:27:18 36° 164° (SSE) 1,212 4.5 -19.2°
Maximum altitude 22:29:09 55° 108° (ESE) 936 4.3 -19.2°
Drops below altitude 10° 22:34:21 10° 31° (NNE) 2,343 7.3 -19.2°
Sets 22:36:46 0° 28° (NNE) 3,273 8.3 -19.2°
